Time,TemperatureF,DewpointF,PressureIn,WindDirection,WindDirectionDegrees,WindSpeedMPH,WindSpeedGustMPH,Humidity,HourlyPrecipIn,Conditions,Clouds,dailyrainin,SoftwareType,DateUTC
2013-02-09 00:02:00,22.0,14.0,-100.00,SSE,150,16.0,19.0,70,0.00,,,0.00,,2013-02-09 00:02:00,
2013-02-09 00:11:00,21.0,14.0,-100.00,SE,145,15.0,19.0,70,0.00,,,0.00,,2013-02-09 00:11:00,
2013-02-09 00:21:00,21.0,14.0,-100.00,SSE,150,14.0,18.0,71,0.00,,,0.00,,2013-02-09 00:21:00,
2013-02-09 00:32:00,21.0,14.0,-100.00,SE,145,14.0,18.0,71,0.00,,,0.00,,2013-02-09 00:32:00,
2013-02-09 00:42:00,21.0,14.0,-100.00,SE,140,14.0,17.0,71,0.00,,,0.00,,2013-02-09 00:42:00,
2013-02-09 00:52:00,20.0,12.0,-100.00,SSE,150,12.0,16.0,72,0.00,,,0.00,,2013-02-09 00:52:00,
2013-02-09 01:01:00,19.0,12.0,-100.00,SSE,150,12.0,16.0,73,0.00,,,0.00,,2013-02-09 01:01:00,
2013-02-09 01:11:00,19.0,12.0,-100.00,SSE,150,12.0,16.0,73,0.00,,,0.00,,2013-02-09 01:11:00,
2013-02-09 01:21:00,19.0,12.0,-100.00,SSE,150,12.0,16.0,73,0.00,,,0.00,,2013-02-09 01:21:00,
2013-02-09 01:32:00,19.0,12.0,-100.00,SSE,150,12.0,16.0,73,0.00,,,0.00,,2013-02-09 01:32:00,
2013-02-09 01:41:00,19.0,12.0,-100.00,SSE,150,12.0,16.0,73,0.00,,,0.00,,2013-02-09 01:41:00,
2013-02-09 02:22:00,16.0,10.0,-100.00,SSE,150,8.0,9.0,79,0.00,,,0.00,,2013-02-09 02:22:00,
2013-02-09 02:32:00,17.0,12.0,-100.00,SSE,150,9.0,11.0,81,0.00,,,0.00,,2013-02-09 02:32:00,
2013-02-09 02:42:00,17.0,12.0,-100.00,SSE,155,11.0,12.0,82,0.00,,,0.00,,2013-02-09 02:42:00,
2013-02-09 02:52:00,18.0,14.0,-100.00,SSE,150,10.0,13.0,83,0.00,,,0.00,,2013-02-09 02:52:00,
2013-02-09 03:02:00,18.0,14.0,-100.00,SSE,150,10.0,12.0,84,0.00,,,0.00,,2013-02-09 03:02:00,
2013-02-09 03:11:00,18.0,14.0,-100.00,SSE,155,10.0,14.0,84,0.00,,,0.00,,2013-02-09 03:11:00,
2013-02-09 03:21:00,19.0,16.0,-100.00,SE,145,12.0,16.0,84,0.00,,,0.00,,2013-02-09 03:21:00,
2013-02-09 03:32:00,19.0,16.0,-100.00,SE,145,12.0,16.0,84,0.00,,,0.00,,2013-02-09 03:32:00,
2013-02-09 03:42:00,19.0,16.0,-100.00,SE,145,12.0,16.0,84,0.00,,,0.00,,2013-02-09 03:42:00,
2013-02-09 03:53:00,20.0,16.0,-100.00,SSE,155,14.0,19.0,83,0.00,,,0.00,,2013-02-09 03:53:00,
2013-02-09 04:02:00,20.0,16.0,-100.00,SSE,155,14.0,19.0,83,0.00,,,0.00,,2013-02-09 04:02:00,
2013-02-09 04:12:00,22.0,18.0,-100.00,SSE,150,17.0,21.0,82,0.00,,,0.00,,2013-02-09 04:12:00,
2013-02-09 04:23:00,22.0,18.0,-100.00,SE,145,15.0,21.0,82,0.00,,,0.00,,2013-02-09 04:23:00,
2013-02-09 04:32:00,21.0,16.0,-100.00,SE,140,17.0,20.0,82,0.00,,,0.00,,2013-02-09 04:32:00,
2013-02-09 04:42:00,21.0,16.0,-100.00,SE,140,15.0,20.0,82,0.00,,,0.00,,2013-02-09 04:42:00,
2013-02-09 04:52:00,21.0,16.0,-100.00,SE,145,16.0,19.0,82,0.00,,,0.00,,2013-02-09 04:52:00,
2013-02-09 05:02:00,21.0,16.0,-100.00,SE,140,14.0,17.0,82,0.00,,,0.00,,2013-02-09 05:02:00,
2013-02-09 05:12:00,20.0,16.0,-100.00,SE,140,14.0,19.0,82,0.00,,,0.00,,2013-02-09 05:12:00,
2013-02-09 05:22:00,21.0,16.0,-100.00,SE,145,14.0,18.0,83,0.00,,,0.00,,2013-02-09 05:22:00,
2013-02-09 05:32:00,21.0,18.0,-100.00,SE,140,14.0,17.0,83,0.00,,,0.00,,2013-02-09 05:32:00,
2013-02-09 05:41:00,21.0,18.0,-100.00,SE,130,13.0,16.0,83,0.00,,,0.00,,2013-02-09 05:41:00,
2013-02-09 05:52:00,21.0,18.0,-100.00,SE,140,12.0,17.0,83,0.00,,,0.00,,2013-02-09 05:52:00,
2013-02-09 06:01:00,21.0,18.0,-100.00,SE,140,12.0,17.0,84,0.00,,,0.00,,2013-02-09 06:01:00,
2013-02-09 06:11:00,21.0,18.0,-100.00,SE,135,13.0,16.0,84,0.00,,,0.00,,2013-02-09 06:11:00,
2013-02-09 06:21:00,21.0,18.0,-100.00,SE,130,12.0,15.0,84,0.00,,,0.00,,2013-02-09 06:21:00,
2013-02-09 06:31:00,21.0,18.0,-100.00,SE,135,12.0,16.0,84,0.00,,,0.00,,2013-02-09 06:31:00,
2013-02-09 06:41:00,21.0,18.0,-100.00,SE,135,12.0,16.0,85,0.00,,,0.00,,2013-02-09 06:41:00,
2013-02-09 06:51:00,21.0,18.0,-100.00,SE,135,13.0,17.0,85,0.00,,,0.00,,2013-02-09 06:51:00,
2013-02-09 07:01:00,21.0,18.0,-100.00,SE,130,12.0,16.0,85,0.00,,,0.00,,2013-02-09 07:01:00,
2013-02-09 07:11:00,21.0,18.0,-100.00,SE,135,12.0,14.0,85,0.00,,,0.00,,2013-02-09 07:11:00,
2013-02-09 07:21:00,21.0,18.0,-100.00,SE,135,12.0,17.0,85,0.00,,,0.00,,2013-02-09 07:21:00,
2013-02-09 07:31:00,21.0,18.0,-100.00,SE,135,13.0,17.0,85,0.00,,,0.00,,2013-02-09 07:31:00,
2013-02-09 07:42:00,21.0,18.0,-100.00,SE,135,14.0,17.0,85,0.00,,,0.00,,2013-02-09 07:42:00,
2013-02-09 07:52:00,21.0,18.0,-100.00,SE,135,13.0,16.0,85,0.00,,,0.00,,2013-02-09 07:52:00,
2013-02-09 08:01:00,21.0,18.0,-100.00,SE,135,14.0,18.0,86,0.00,,,0.00,,2013-02-09 08:01:00,
2013-02-09 08:11:00,21.0,18.0,-100.00,SE,135,12.0,15.0,86,0.00,,,0.00,,2013-02-09 08:11:00,
2013-02-09 08:21:00,21.0,18.0,-100.00,SE,135,13.0,16.0,86,0.00,,,0.00,,2013-02-09 08:21:00,
2013-02-09 08:31:00,21.0,18.0,-100.00,SE,145,14.0,17.0,86,0.00,,,0.00,,2013-02-09 08:31:00,
2013-02-09 08:42:00,21.0,18.0,-100.00,SE,145,12.0,17.0,86,0.00,,,0.00,,2013-02-09 08:42:00,
2013-02-09 08:52:00,21.0,18.0,-100.00,SE,135,12.0,16.0,86,0.00,,,0.00,,2013-02-09 08:52:00,
2013-02-09 09:03:00,21.0,18.0,-100.00,SE,140,12.0,14.0,86,0.00,,,0.00,,2013-02-09 09:03:00,
2013-02-09 09:11:00,21.0,18.0,-100.00,SE,145,12.0,16.0,86,0.00,,,0.00,,2013-02-09 09:11:00,
2013-02-09 09:21:00,21.0,18.0,-100.00,SE,145,11.0,14.0,86,0.00,,,0.00,,2013-02-09 09:21:00,
2013-02-09 09:41:00,21.0,18.0,-100.00,SE,140,10.0,12.0,87,0.00,,,0.00,,2013-02-09 09:41:00,
2013-02-09 09:51:00,21.0,18.0,-100.00,SE,145,9.0,13.0,87,0.00,,,0.00,,2013-02-09 09:51:00,
2013-02-09 10:01:00,21.0,18.0,-100.00,SE,145,8.0,12.0,87,0.00,,,0.00,,2013-02-09 10:01:00,
2013-02-09 10:11:00,21.0,18.0,-100.00,SE,145,9.0,11.0,87,0.00,,,0.00,,2013-02-09 10:11:00,
2013-02-09 10:21:00,21.0,18.0,-100.00,SSE,150,8.0,10.0,87,0.00,,,0.00,,2013-02-09 10:21:00,
2013-02-09 10:31:00,21.0,18.0,-100.00,SSE,150,8.0,9.0,88,0.00,,,0.00,,2013-02-09 10:31:00,
2013-02-09 10:41:00,21.0,18.0,-100.00,SSE,155,7.0,10.0,88,0.00,,,0.00,,2013-02-09 10:41:00,
2013-02-09 10:51:00,21.0,18.0,-100.00,SSE,160,7.0,9.0,89,0.00,,,0.00,,2013-02-09 10:51:00,
2013-02-09 11:01:00,21.0,18.0,-100.00,SSE,155,7.0,9.0,89,0.00,,,0.00,,2013-02-09 11:01:00,
2013-02-09 11:11:00,21.0,18.0,-100.00,SSE,155,7.0,7.0,90,0.00,,,0.00,,2013-02-09 11:11:00,
2013-02-09 11:21:00,21.0,19.0,-100.00,SSE,155,6.0,7.0,91,0.00,,,0.00,,2013-02-09 11:21:00,
2013-02-09 11:31:00,21.0,19.0,-100.00,SSE,150,6.0,7.0,91,0.00,,,0.00,,2013-02-09 11:31:00,
2013-02-09 11:41:00,21.0,19.0,-100.00,SSE,150,6.0,7.0,92,0.00,,,0.00,,2013-02-09 11:41:00,
2013-02-09 11:52:00,21.0,19.0,-100.00,SSE,155,6.0,7.0,92,0.00,,,0.00,,2013-02-09 11:52:00,
2013-02-09 12:02:00,21.0,19.0,-100.00,SSE,160,6.0,7.0,93,0.00,,,0.00,,2013-02-09 12:02:00,
2013-02-09 12:11:00,21.0,19.0,-100.00,SSE,160,6.0,7.0,93,0.00,,,0.00,,2013-02-09 12:11:00,
2013-02-09 12:21:00,21.0,19.0,-100.00,SSE,165,7.0,8.0,93,0.00,,,0.00,,2013-02-09 12:21:00,
2013-02-09 12:32:00,22.0,19.0,-100.00,SSE,165,7.0,8.0,94,0.00,,,0.00,,2013-02-09 12:32:00,
2013-02-09 12:42:00,22.0,21.0,-100.00,SSE,165,7.0,9.0,94,0.00,,,0.00,,2013-02-09 12:42:00,
2013-02-09 12:52:00,22.0,21.0,-100.00,South,170,7.0,7.0,94,0.00,,,0.00,,2013-02-09 12:52:00,
2013-02-09 13:02:00,22.0,21.0,-100.00,South,175,7.0,9.0,95,0.00,,,0.00,,2013-02-09 13:02:00,
2013-02-09 13:11:00,22.0,21.0,-100.00,South,175,7.0,9.0,95,0.00,,,0.00,,2013-02-09 13:11:00,
2013-02-09 13:21:00,23.0,21.0,-100.00,South,175,7.0,9.0,95,0.00,,,0.00,,2013-02-09 13:21:00,
2013-02-09 13:32:00,23.0,23.0,-100.00,South,175,9.0,10.0,95,0.00,,,0.00,,2013-02-09 13:32:00,
2013-02-09 13:42:00,23.0,23.0,-100.00,South,180,9.0,10.0,95,0.00,,,0.00,,2013-02-09 13:42:00,
2013-02-09 13:51:00,23.0,23.0,-100.00,South,185,9.0,10.0,96,0.00,,,0.00,,2013-02-09 13:51:00,
2013-02-09 14:01:00,23.0,23.0,-100.00,South,185,7.0,9.0,96,0.00,,,0.00,,2013-02-09 14:01:00,
2013-02-09 14:11:00,23.0,23.0,-100.00,SSW,195,7.0,9.0,96,0.00,,,0.00,,2013-02-09 14:11:00,
2013-02-09 14:21:00,23.0,23.0,-100.00,South,185,7.0,9.0,96,0.00,,,0.00,,2013-02-09 14:21:00,
2013-02-09 14:31:00,24.0,23.0,-100.00,South,190,8.0,10.0,95,0.00,,,0.00,,2013-02-09 14:31:00,
2013-02-09 14:41:00,24.0,23.0,-100.00,South,185,8.0,9.0,95,0.00,,,0.00,,2013-02-09 14:41:00,
2013-02-09 14:52:00,24.0,23.0,-100.00,South,185,8.0,9.0,95,0.00,,,0.00,,2013-02-09 14:52:00,
2013-02-09 15:01:00,24.0,23.0,-100.00,South,180,7.0,9.0,95,0.00,,,0.00,,2013-02-09 15:01:00,
2013-02-09 15:21:00,24.0,23.0,-100.00,South,185,7.0,7.0,95,0.00,,,0.00,,2013-02-09 15:21:00,
2013-02-09 15:32:00,24.0,23.0,-100.00,South,190,6.0,7.0,95,0.00,,,0.00,,2013-02-09 15:32:00,
2013-02-09 15:42:00,24.0,23.0,-100.00,SSW,200,6.0,9.0,95,0.00,,,0.00,,2013-02-09 15:42:00,
2013-02-09 15:51:00,24.0,23.0,-100.00,South,190,7.0,9.0,95,0.00,,,0.00,,2013-02-09 15:51:00,
2013-02-09 16:01:00,24.0,23.0,-100.00,SSW,205,6.0,9.0,95,0.00,,,0.00,,2013-02-09 16:01:00,
2013-02-09 16:11:00,24.0,23.0,-100.00,SSW,205,6.0,9.0,95,0.00,,,0.00,,2013-02-09 16:11:00,
2013-02-09 16:22:00,25.0,23.0,-100.00,SSW,200,7.0,9.0,94,0.00,,,0.00,,2013-02-09 16:22:00,
2013-02-09 16:31:00,25.0,23.0,-100.00,South,185,8.0,10.0,94,0.00,,,0.00,,2013-02-09 16:31:00,
2013-02-09 16:42:00,25.0,23.0,-100.00,South,185,8.0,10.0,94,0.00,,,0.00,,2013-02-09 16:42:00,
2013-02-09 16:52:00,25.0,23.0,-100.00,SSW,200,7.0,11.0,92,0.00,,,0.00,,2013-02-09 16:52:00,
2013-02-09 17:01:00,26.0,23.0,-100.00,SSW,200,7.0,10.0,92,0.00,,,0.00,,2013-02-09 17:01:00,
2013-02-09 17:11:00,26.0,23.0,-100.00,SSW,200,7.0,10.0,92,0.00,,,0.00,,2013-02-09 17:11:00,
2013-02-09 17:21:00,26.0,23.0,-100.00,SSW,200,7.0,10.0,92,0.00,,,0.00,,2013-02-09 17:21:00,
2013-02-09 17:32:00,26.0,23.0,-100.00,SSW,205,6.0,9.0,90,0.00,,,0.00,,2013-02-09 17:32:00,
2013-02-09 17:42:00,26.0,23.0,-100.00,South,180,6.0,8.0,90,0.00,,,0.00,,2013-02-09 17:42:00,
2013-02-09 17:52:00,26.0,23.0,-100.00,South,185,7.0,7.0,90,0.00,,,0.00,,2013-02-09 17:52:00,
2013-02-09 18:02:00,26.0,23.0,-100.00,South,180,7.0,7.0,89,0.00,,,0.00,,2013-02-09 18:02:00,
2013-02-09 18:12:00,27.0,25.0,-100.00,South,180,6.0,7.0,88,0.00,,,0.00,,2013-02-09 18:12:00,
2013-02-09 18:23:00,27.0,25.0,-100.00,South,185,5.0,8.0,87,0.00,,,0.00,,2013-02-09 18:23:00,
2013-02-09 18:32:00,27.0,23.0,-100.00,SSW,195,6.0,7.0,87,0.00,,,0.00,,2013-02-09 18:32:00,
2013-02-09 18:42:00,28.0,25.0,-100.00,SW,215,4.0,6.0,87,0.00,,,0.00,,2013-02-09 18:42:00,
2013-02-09 18:51:00,28.0,25.0,-100.00,SSW,210,4.0,6.0,85,0.00,,,0.00,,2013-02-09 18:51:00,
2013-02-09 19:01:00,28.0,25.0,-100.00,SSW,210,4.0,6.0,85,0.00,,,0.00,,2013-02-09 19:01:00,
2013-02-09 19:11:00,28.0,25.0,-100.00,SSW,200,4.0,6.0,84,0.00,,,0.00,,2013-02-09 19:11:00,
2013-02-09 19:22:00,29.0,25.0,-100.00,SSW,210,3.0,5.0,83,0.00,,,0.00,,2013-02-09 19:22:00,
2013-02-09 19:32:00,29.0,25.0,-100.00,SW,230,3.0,5.0,83,0.00,,,0.00,,2013-02-09 19:32:00,
2013-02-09 19:42:00,29.0,25.0,-100.00,SW,230,2.0,5.0,82,0.00,,,0.00,,2013-02-09 19:42:00,
2013-02-09 19:52:00,29.0,25.0,-100.00,SW,230,3.0,4.0,81,0.00,,,0.00,,2013-02-09 19:52:00,
2013-02-09 20:01:00,29.0,25.0,-100.00,SW,225,2.0,4.0,81,0.00,,,0.00,,2013-02-09 20:01:00,
2013-02-09 20:21:00,29.0,23.0,-100.00,SSE,150,2.0,3.0,79,0.00,,,0.00,,2013-02-09 20:21:00,
2013-02-09 20:31:00,29.0,23.0,-100.00,SSE,160,1.0,2.0,79,0.00,,,0.00,,2013-02-09 20:31:00,
2013-02-09 20:42:00,30.0,25.0,-100.00,SSW,200,1.0,2.0,78,0.00,,,0.00,,2013-02-09 20:42:00,
2013-02-09 20:52:00,29.0,23.0,-100.00,South,175,2.0,3.0,78,0.00,,,0.00,,2013-02-09 20:52:00,
2013-02-09 21:02:00,29.0,23.0,-100.00,SSE,160,2.0,3.0,78,0.00,,,0.00,,2013-02-09 21:02:00,
2013-02-09 21:11:00,29.0,23.0,-100.00,South,185,2.0,4.0,78,0.00,,,0.00,,2013-02-09 21:11:00,
2013-02-09 21:21:00,29.0,23.0,-100.00,South,175,2.0,4.0,79,0.00,,,0.00,,2013-02-09 21:21:00,
2013-02-09 21:31:00,29.0,23.0,-100.00,South,175,2.0,3.0,79,0.00,,,0.00,,2013-02-09 21:31:00,
2013-02-09 21:41:00,29.0,23.0,-100.00,South,180,2.0,3.0,79,0.00,,,0.00,,2013-02-09 21:41:00,
2013-02-09 21:52:00,29.0,25.0,-100.00,SSW,205,1.0,2.0,80,0.00,,,0.00,,2013-02-09 21:52:00,
2013-02-09 22:01:00,29.0,25.0,-100.00,South,190,1.0,2.0,80,0.00,,,0.00,,2013-02-09 22:01:00,
2013-02-09 22:11:00,29.0,25.0,-100.00,South,190,1.0,2.0,80,0.00,,,0.00,,2013-02-09 22:11:00,
2013-02-09 22:21:00,29.0,25.0,-100.00,South,190,1.0,2.0,80,0.00,,,0.00,,2013-02-09 22:21:00,
2013-02-09 22:32:00,29.0,23.0,-100.00,SE,135,1.0,2.0,81,0.00,,,0.00,,2013-02-09 22:32:00,
2013-02-09 22:42:00,29.0,23.0,-100.00,SSE,150,2.0,4.0,82,0.00,,,0.00,,2013-02-09 22:42:00,
2013-02-09 22:52:00,28.0,25.0,-100.00,SE,125,3.0,4.0,84,0.00,,,0.00,,2013-02-09 22:52:00,
2013-02-09 23:01:00,28.0,25.0,-100.00,SE,140,3.0,4.0,85,0.00,,,0.00,,2013-02-09 23:01:00,
2013-02-09 23:11:00,28.0,25.0,-100.00,SE,140,3.0,4.0,85,0.00,,,0.00,,2013-02-09 23:11:00,
2013-02-09 23:21:00,28.0,25.0,-100.00,SE,140,3.0,4.0,85,0.00,,,0.00,,2013-02-09 23:21:00,
2013-02-09 23:31:00,28.0,25.0,-100.00,SE,125,3.0,4.0,87,0.00,,,0.00,,2013-02-09 23:31:00,
2013-02-09 23:42:00,28.0,25.0,-100.00,SE,130,2.0,4.0,87,0.00,,,0.00,,2013-02-09 23:42:00,
2013-02-09 23:52:00,28.0,25.0,-100.00,SE,135,2.0,4.0,87,0.00,,,0.00,,2013-02-09 23:52:00,